[[{"header":{"parameterUnit":"m.s-1","parameterCategory":1,"la1":30.2991,"la2":30.254,"lo1":-89.0895,"lo2":-89.0444,"dy":0.0017,"dx":0.0017,"nx":28,"ny":28,"refTime":"2024-08-18T03:00:00:Z","depth":0,"parameterNumber":2,"parameterNumberName":"U-component_of_WINDS"},"data":[0,0,0,0,0,0,0,0,0,0,0,0,0,0,0,0,0,0,0,0,0,0,0,0,0,0,0,0,0,0,0,0,0,0,0,0,0,0,0,0,0,0,0,0,0,0,0,0,0,0,0,0,0,0,0,0,0,0,2.6864,2.6866,0,2.7009,2.7011,2.7013,2.7041,2.704,2.7039,2.7038,2.7186,2.7191,2.7196,0,0,0,0,0,0,0,0,0,0,0,0,0,2.661,2.6614,2.6864,2.6866,2.6868,2.7009,2.7011,2.7013,2.7041,2.704,2.7039,2.7037,2.7185,2.7191,2.7197,0,0,0,0,0,0,0,0,0,0,0,0,0,2.6734,2.6616,2.6864,2.6899,2.6904,2.7009,2.7011,2.7014,2.7042,2.704,2.7038,2.7037,2.7183,2.719,2.7198,2.7278,0,0,2.7221,2.7224,0,0,0,0,0,0,0,0,2.6727,2.6744,2.6892,2.6897,2.6902,2.7006,2.6976,2.7102,2.7042,2.6989,2.7038,2.7036,2.7128,2.714,2.7171,2.7285,2.7291,2.7221,2.7226,2.7229,2.7231,0,0,0,0,0,0,0,2.6719,2.6737,2.6922,2.6894,2.69,2.6907,2.6923,2.7,2.7066,2.6994,2.6996,2.7013,2.713,2.7163,2.7174,2.7294,2.7221,2.7228,2.7232,2.7235,2.7479,2.7481,0,0,0,0,0,0,2.6704,2.673,2.6917,2.6926,2.6809,2.6913,2.6931,2.6974,2.7065,2.7078,2.7014,2.7014,2.7151,2.7165,2.718,2.7278,2.7229,2.7236,2.724,2.7477,2.7479,2.7481,0,0,0,0,0,0,2.6698,2.672,2.6911,2.6829,2.6854,2.6919,2.6968,2.6978,2.7011,2.7081,2.7093,2.7036,2.715,2.7169,2.7253,2.7283,2.7239,2.7246,2.7475,2.7478,2.748,2.7476,0,0,0,0,0,0,2.6691,2.6718,2.675,2.6829,2.6858,2.6982,2.697,2.6982,2.7024,2.7025,2.7105,2.7116,2.7151,2.7241,2.726,2.7293,2.7252,2.7472,2.7476,2.7479,2.7474,2.7478,2.7482,0,0,0,0,0,2.6682,2.6743,2.6751,2.6774,2.6899,2.6984,2.7,2.7039,2.7026,2.7058,2.7103,2.7114,2.7277,2.725,2.7271,2.7307,2.747,2.7475,2.7479,2.7472,2.7477,2.7482,0,0,0,0,0,0,2.6666,2.6754,2.6764,2.6853,2.6911,2.6989,2.703,2.7044,2.7106,2.7104,2.7149,2.7167,2.7248,2.7286,2.7254,2.7388,2.7373,2.7382,2.736,2.7366,2.737,2.7359,2.7258,0,0,0,0,0,2.6673,2.6735,2.6809,2.688,2.6909,2.6964,2.7003,2.7027,2.7089,2.7113,2.7164,2.7223,2.7288,2.7329,2.7393,2.748,2.7496,2.7515,2.7519,2.7522,2.7529,2.7576,2.7584,2.7496,2.7496,2.7496,0,0,2.6688,2.6744,2.678,2.6879,2.6926,2.6988,2.6985,2.7052,2.7098,2.7124,2.7205,2.7244,2.7313,2.7398,2.7438,2.7432,2.7557,2.7528,2.753,2.7535,2.7581,2.7589,2.7596,2.7499,2.7498,2.7498,0,0,2.6746,2.6796,2.686,2.6907,2.6979,2.7015,2.703,2.7106,2.7133,2.7215,2.7235,2.7291,2.7402,2.7449,2.7488,2.7563,2.7574,2.7582,2.7605,2.765,2.7657,2.7663,2.7687,2.7696,2.7589,2.7589,2.7589,0,2.6756,2.6851,2.6891,2.6956,2.6998,2.7024,2.7088,2.7132,2.7221,2.7248,2.7241,2.7379,2.7428,2.7523,2.7541,2.7572,2.759,2.7573,2.7652,2.7659,2.7666,2.769,2.7699,2.7589,2.7589,2.7589,2.7589,0,2.6857,2.6923,2.6966,2.705,2.7097,2.7162,2.721,2.7253,2.7273,2.731,2.7393,2.7452,2.7526,2.7551,2.7572,2.7649,2.7643,2.7644,2.7629,2.7674,2.7697,2.7706,2.759,2.759,2.759,2.759,0,0,2.691,2.7015,2.7029,2.7067,2.7147,2.7198,2.7264,2.7336,2.7371,2.7431,2.7486,2.7578,2.7579,2.7622,2.7649,2.7688,2.7741,2.7684,2.7686,2.7691,2.7827,2.7825,2.7835,2.775,2.7752,2.7753,2.7821,0,2.6977,2.7093,2.7131,2.7228,2.7287,2.7312,2.7369,2.7423,2.7459,2.7515,2.7555,2.7619,2.7616,2.7642,2.7683,2.7726,2.7769,2.7722,2.78,2.7802,2.778,2.7847,2.7846,2.7906,2.783,2.7832,2.7833,0,2.707,2.7131,2.7233,2.7304,2.7331,2.7381,2.7449,2.7503,2.7565,2.7588,2.7636,2.7659,2.7727,2.7709,2.7802,2.7769,2.7804,2.783,2.7833,2.784,2.7819,2.7854,2.7927,2.7935,2.7848,2.7847,2.7846,0,2.7095,2.7203,2.7278,2.7309,2.7394,2.7428,2.7466,2.7526,2.7567,2.7627,2.7653,2.7721,2.7757,2.7808,2.7848,2.7832,2.7937,2.7923,2.7957,2.7956,2.7977,2.7975,2.8054,2.8002,2.8002,2.8002,2.8001,0,2.7165,2.7226,2.729,2.7335,2.7404,2.7446,2.7513,2.7552,2.7605,2.7658,2.7684,2.7733,2.7784,2.7839,2.7871,2.7942,2.7959,2.7979,2.7986,2.7975,2.7973,2.7997,2.7993,2.8004,2.8004,2.8003,2.8003,0,2.7204,2.725,2.7332,2.7406,2.7425,2.7473,2.7535,2.758,2.7617,2.7683,2.7701,2.7759,2.7825,2.787,2.7956,2.7977,2.8054,2.8061,2.8032,2.8036,2.8066,2.8062,2.8162,2.8176,2.8116,2.8117,2.8117,0,2.7245,2.7292,2.737,2.7407,2.7444,2.7504,2.7545,2.7588,2.763,2.7703,2.7739,2.7807,2.7863,2.7968,2.8018,2.8083,2.8091,2.8122,2.8101,2.8088,2.8089,2.8085,2.8089,2.8124,2.8125,2.8125,2.8125,0,2.7311,2.733,2.7389,2.7455,2.7503,2.7557,2.7611,2.764,2.7692,2.7738,2.7805,2.7849,2.7936,2.8002,2.8072,2.811,2.8126,2.8131,2.8142,2.8131,2.8111,2.812,2.8039,2.8129,2.8128,2.8128,2.8128,2.8128,2.7351,2.7393,2.7454,2.7518,2.7563,2.7612,2.7657,2.7699,2.7756,2.783,2.7852,2.7922,2.7981,2.8076,2.8115,2.817,2.8167,2.8183,2.8187,2.819,2.8189,2.8104,2.8183,2.8183,2.8183,2.8183,2.8183,0,2.7416,2.7456,2.7515,2.7589,2.7638,2.7649,2.7709,2.775,2.7811,2.7865,2.792,2.7997,2.8061,2.8115,2.8182,2.8215,2.8224,2.8231,2.8228,2.8236,2.8188,2.8171,2.8223,2.8223,2.8223,2.8223,2.8223,2.8222,2.7456,2.7528,2.7554,2.7648,2.7688,2.7756,2.7789,2.7835,2.7878,2.7962,2.8016,2.805,2.8104,2.8174,2.8233,2.8248,2.827,2.8275,2.829,2.8244,2.824,2.8235,2.8219,2.828,2.828,2.8333,2.8334,2.8334]},{"header":{"parameterUnit":"m.s-1","parameterCategory":1,"la1":30.2991,"la2":30.254,"lo1":-89.0895,"lo2":-89.0444,"dy":0.0017,"dx":0.0017,"nx":28,"ny":28,"refTime":"2024-08-18T03:00:00:Z","depth":0,"parameterNumber":3,"parameterNumberName":"V-component_of_WINDS"},"data":[0,0,0,0,0,0,0,0,0,0,0,0,0,0,0,0,0,0,0,0,0,0,0,0,0,0,0,0,0,0,0,0,0,0,0,0,0,0,0,0,0,0,0,0,0,0,0,0,0,0,0,0,0,0,0,0,0,0,0.6035,0.6035,0,0.6077,0.6077,0.6078,0.6073,0.6072,0.6071,0.6071,0.6114,0.6116,0.6117,0,0,0,0,0,0,0,0,0,0,0,0,0,0.5949,0.5951,0.6035,0.6035,0.6036,0.6077,0.6077,0.6078,0.6073,0.6072,0.6071,0.607,0.6113,0.6115,0.6117,0,0,0,0,0,0,0,0,0,0,0,0,0,0.5988,0.5951,0.6035,0.6038,0.6039,0.6077,0.6077,0.6078,0.6073,0.6072,0.6071,0.607,0.6113,0.6115,0.6118,0.6155,0,0,0.6126,0.6127,0,0,0,0,0,0,0,0,0.5986,0.5992,0.6037,0.6038,0.6039,0.6068,0.6063,0.6104,0.6073,0.606,0.6071,0.6069,0.61,0.6103,0.6113,0.6157,0.6159,0.6126,0.6128,0.6129,0.613,0,0,0,0,0,0,0,0.5983,0.599,0.6052,0.6038,0.6039,0.6037,0.6042,0.6071,0.6085,0.6061,0.6061,0.6066,0.61,0.6111,0.6114,0.6159,0.6126,0.6129,0.613,0.6131,0.6234,0.6235,0,0,0,0,0,0,0.598,0.5987,0.605,0.6053,0.6009,0.604,0.6045,0.606,0.6085,0.6087,0.6067,0.6065,0.6107,0.6111,0.6116,0.616,0.6129,0.6132,0.6133,0.6233,0.6234,0.6236,0,0,0,0,0,0,0.5978,0.5986,0.6048,0.602,0.6028,0.6042,0.606,0.6061,0.6072,0.6089,0.6091,0.6075,0.6106,0.6112,0.6145,0.6162,0.6133,0.6135,0.6232,0.6233,0.6235,0.625,0,0,0,0,0,0,0.5976,0.5985,0.6,0.602,0.6029,0.6077,0.6061,0.6063,0.6077,0.6076,0.6098,0.61,0.6106,0.6141,0.6148,0.6165,0.6137,0.623,0.6232,0.6234,0.6248,0.6252,0.6255,0,0,0,0,0,0.5973,0.6003,0.6,0.6008,0.6048,0.6078,0.6083,0.6089,0.6078,0.6093,0.6103,0.61,0.6159,0.6144,0.6152,0.617,0.6229,0.6232,0.6234,0.6247,0.6251,0.6255,0,0,0,0,0,0,0.5984,0.6005,0.6003,0.6041,0.6058,0.6077,0.6096,0.6094,0.6114,0.6113,0.6118,0.6123,0.6156,0.6166,0.615,0.6207,0.6192,0.6197,0.6199,0.6204,0.6207,0.6205,0.6139,0,0,0,0,0,0.5991,0.6014,0.6031,0.6062,0.6071,0.6082,0.6095,0.6098,0.6116,0.6123,0.6136,0.6153,0.6175,0.619,0.6212,0.6249,0.6253,0.6265,0.6269,0.6272,0.6276,0.6295,0.6301,0.6244,0.6244,0.6244,0,0,0.6005,0.602,0.6034,0.6065,0.6078,0.6102,0.6088,0.6114,0.6131,0.6127,0.6159,0.6168,0.6188,0.6223,0.6239,0.6232,0.6292,0.6275,0.6277,0.6279,0.6298,0.6304,0.6308,0.6246,0.6245,0.6245,0,0,0.6043,0.6057,0.6084,0.6097,0.6117,0.6124,0.6131,0.615,0.6157,0.6188,0.6186,0.6206,0.6244,0.6258,0.627,0.6311,0.6309,0.6318,0.6337,0.6357,0.6361,0.6365,0.6379,0.6385,0.6322,0.6322,0.6322,0,0.6059,0.6094,0.6098,0.6124,0.6137,0.6134,0.6161,0.6174,0.62,0.6209,0.6201,0.6248,0.6262,0.6299,0.6309,0.6319,0.6326,0.6316,0.636,0.6364,0.6368,0.6382,0.6387,0.6323,0.6323,0.6322,0.6322,0,0.6112,0.6136,0.6156,0.618,0.6196,0.6222,0.623,0.6245,0.6245,0.6253,0.6285,0.63,0.6324,0.6333,0.6334,0.637,0.6366,0.6359,0.6345,0.6374,0.6387,0.6393,0.6324,0.6324,0.6323,0.6323,0,0,0.616,0.6186,0.6193,0.6204,0.6225,0.6243,0.6269,0.6292,0.6304,0.6322,0.6343,0.6375,0.6368,0.6382,0.6384,0.6401,0.6432,0.6392,0.6392,0.6399,0.6472,0.6478,0.6484,0.6429,0.6431,0.6431,0.647,0,0.6201,0.6246,0.625,0.629,0.6312,0.6308,0.633,0.6345,0.6352,0.6372,0.6379,0.6402,0.6391,0.6399,0.6415,0.6425,0.6447,0.6422,0.6449,0.645,0.6445,0.6491,0.6497,0.6533,0.6476,0.6476,0.6477,0,0.6254,0.6273,0.6315,0.6332,0.6341,0.6361,0.6382,0.64,0.6417,0.6421,0.6435,0.6435,0.646,0.6444,0.6479,0.6462,0.6473,0.6479,0.648,0.6484,0.6466,0.6495,0.6545,0.655,0.6485,0.6485,0.6484,0,0.6285,0.6321,0.635,0.636,0.638,0.6394,0.6403,0.6418,0.6431,0.6449,0.6458,0.6478,0.649,0.6505,0.651,0.6498,0.6545,0.6529,0.6548,0.6548,0.6559,0.6559,0.6612,0.6566,0.6566,0.6566,0.6565,0,0.633,0.6356,0.6364,0.6383,0.6412,0.6415,0.6443,0.6451,0.6465,0.6484,0.6482,0.65,0.6505,0.6524,0.6528,0.6556,0.6561,0.6565,0.6566,0.6566,0.6565,0.6573,0.6571,0.6567,0.6567,0.6566,0.6566,0,0.637,0.6376,0.6409,0.6425,0.6429,0.645,0.6463,0.648,0.6486,0.6511,0.6517,0.6526,0.6549,0.6555,0.6581,0.6584,0.6617,0.6615,0.6611,0.6611,0.663,0.6628,0.6691,0.6699,0.6647,0.6648,0.6648,0,0.6399,0.6419,0.6436,0.6449,0.6458,0.6479,0.6492,0.6496,0.6509,0.6528,0.6543,0.6565,0.6583,0.6618,0.6627,0.6647,0.6646,0.6666,0.6649,0.6648,0.6646,0.6645,0.6647,0.667,0.667,0.6671,0.6671,0,0.6449,0.645,0.6469,0.6489,0.6505,0.652,0.6536,0.6546,0.6551,0.6567,0.6589,0.6603,0.6629,0.665,0.667,0.6679,0.6676,0.6676,0.6682,0.6682,0.6679,0.6681,0.662,0.6675,0.6675,0.6674,0.6674,0.6674,0.6484,0.6501,0.6516,0.6537,0.6548,0.6562,0.6579,0.6586,0.6605,0.6627,0.6627,0.6651,0.6666,0.6692,0.6702,0.672,0.6714,0.6722,0.6724,0.6726,0.6728,0.6675,0.6724,0.6724,0.6723,0.6723,0.6723,0,0.6534,0.6543,0.6562,0.6582,0.6598,0.6593,0.6609,0.6623,0.6644,0.6658,0.6675,0.67,0.672,0.673,0.675,0.6763,0.6762,0.6768,0.6767,0.6769,0.6732,0.6725,0.6768,0.6768,0.6768,0.6768,0.6768,0.6768,0.6562,0.659,0.6593,0.6627,0.6635,0.6659,0.6668,0.6681,0.6691,0.6719,0.6736,0.6742,0.6754,0.6774,0.6792,0.6795,0.6802,0.6809,0.6811,0.6776,0.6772,0.6767,0.6761,0.6811,0.6811,0.6846,0.6846,0.6847]}]]